"Time","Value","Approval","myLocation"
"2023-04-25 00:00",2.54385165892877,"Approved","OW459"
"2023-04-25 01:00",2.54885007360435,"Approved","OW459"
"2023-04-25 02:00",2.52884848827992,"Approved","OW459"
"2023-04-25 03:00",2.5218469029555,"Approved","OW459"
"2023-04-25 04:00",2.51784531763107,"Approved","OW459"
"2023-04-25 05:00",2.51684373230665,"Approved","OW459"
"2023-04-25 06:00",2.51484214698222,"Approved","OW459"
"2023-04-25 07:00",2.5138405616578,"Approved","OW459"
"2023-04-25 08:00",2.51183897633337,"Approved","OW459"
"2023-04-25 09:00",2.51183739100895,"Approved","OW459"
"2023-04-25 10:00",2.51083580568452,"Approved","OW459"
"2023-04-25 11:00",2.5108342203601,"Approved","OW459"
"2023-04-25 12:00",2.50983263503567,"Approved","OW459"
"2023-04-25 13:00",2.50983104971124,"Approved","OW459"
"2023-04-25 14:00",2.50982946438682,"Approved","OW459"
"2023-04-25 15:00",2.50982787906239,"Approved","OW459"
"2023-04-25 16:00",2.50882629373797,"Approved","OW459"
"2023-04-25 17:00",2.50782470841354,"Approved","OW459"
"2023-04-25 18:00",2.50882312308912,"Approved","OW459"
"2023-04-25 19:00",2.50782153776469,"Approved","OW459"
"2023-04-25 20:00",2.50781995244027,"Approved","OW459"
"2023-04-25 21:00",2.50881836711584,"Approved","OW459"
"2023-04-25 22:00",2.50781678179142,"Approved","OW459"
"2023-04-25 23:00",2.50781519646699,"Approved","OW459"
"2023-04-26 00:00",2.50781361114257,"Approved","OW459"
"2023-04-26 01:00",2.52881202581814,"Approved","OW459"
"2023-04-26 02:00",2.53981044049372,"Approved","OW459"
"2023-04-26 03:00",2.51480885516929,"Approved","OW459"
"2023-04-26 04:00",2.51280726984486,"Approved","OW459"
"2023-04-26 05:00",2.51080568452044,"Approved","OW459"
"2023-04-26 06:00",2.50980409919601,"Approved","OW459"
"2023-04-26 07:00",2.50980251387159,"Approved","OW459"
"2023-04-26 08:00",2.50880092854716,"Approved","OW459"
"2023-04-26 09:00",2.50879934322274,"Approved","OW459"
"2023-04-26 10:00",2.50779775789831,"Approved","OW459"
"2023-04-26 11:00",2.50779617257389,"Approved","OW459"
"2023-04-26 12:00",2.50779458724946,"Approved","OW459"
"2023-04-26 13:00",2.50779300192504,"Approved","OW459"
"2023-04-26 14:00",2.50779141660061,"Approved","OW459"
"2023-04-26 15:00",2.50778983127619,"Approved","OW459"
"2023-04-26 16:00",2.50778824595176,"Approved","OW459"
"2023-04-26 17:00",2.50778666062734,"Approved","OW459"
"2023-04-26 18:00",2.50778507530291,"Approved","OW459"
"2023-04-26 19:00",2.50778348997848,"Approved","OW459"
"2023-04-26 20:00",2.50778190465406,"Approved","OW459"
"2023-04-26 21:00",2.50778031932963,"Approved","OW459"
"2023-04-26 22:00",2.50777873400521,"Approved","OW459"
"2023-04-26 23:00",2.53677714868078,"Approved","OW459"
"2023-04-27 00:00",2.51877556335636,"Approved","OW459"
"2023-04-27 01:00",2.51377397803193,"Approved","OW459"
"2023-04-27 02:00",2.51277239270751,"Approved","OW459"
"2023-04-27 03:00",2.51177080738308,"Approved","OW459"
"2023-04-27 04:00",2.51176922205866,"Approved","OW459"
"2023-04-27 05:00",2.51076763673423,"Approved","OW459"
"2023-04-27 06:00",2.51076605140981,"Approved","OW459"
"2023-04-27 07:00",2.51076446608538,"Approved","OW459"
"2023-04-27 08:00",2.50976288076096,"Approved","OW459"
"2023-04-27 09:00",2.50976129543653,"Approved","OW459"
"2023-04-27 10:00",2.5097597101121,"Approved","OW459"
"2023-04-27 11:00",2.50975812478768,"Approved","OW459"
"2023-04-27 12:00",2.50975653946325,"Approved","OW459"
"2023-04-27 13:00",2.51075495413883,"Approved","OW459"
"2023-04-27 14:00",2.5107533688144,"Approved","OW459"
"2023-04-27 15:00",2.51075178348998,"Approved","OW459"
"2023-04-27 16:00",2.51175019816555,"Approved","OW459"
"2023-04-27 17:00",2.51174861284113,"Approved","OW459"
"2023-04-27 18:00",2.5117470275167,"Approved","OW459"
"2023-04-27 19:00",2.51274544219228,"Approved","OW459"
"2023-04-27 20:00",2.51274385686785,"Approved","OW459"
"2023-04-27 21:00",2.51274227154343,"Approved","OW459"
"2023-04-27 22:00",2.511740686219,"Approved","OW459"
"2023-04-27 23:00",2.51173910089458,"Approved","OW459"
"2023-04-28 00:00",2.51173751557015,"Approved","OW459"
"2023-04-28 01:00",2.54073593024573,"Approved","OW459"
"2023-04-28 02:00",2.5467343449213,"Approved","OW459"
"2023-04-28 03:00",2.52073275959687,"Approved","OW459"
"2023-04-28 04:00",2.51873117427245,"Approved","OW459"
"2023-04-28 05:00",2.53572958894802,"Approved","OW459"
"2023-04-28 06:00",2.5467280036236,"Approved","OW459"
"2023-04-28 07:00",2.52572641829917,"Approved","OW459"
"2023-04-28 08:00",2.51972483297475,"Approved","OW459"
"2023-04-28 09:00",2.51772324765032,"Approved","OW459"
"2023-04-28 10:00",2.5157216623259,"Approved","OW459"
"2023-04-28 11:00",2.51472007700147,"Approved","OW459"
"2023-04-28 12:00",2.51371849167705,"Approved","OW459"
"2023-04-28 13:00",2.51371690635262,"Approved","OW459"
"2023-04-28 14:00",2.5137153210282,"Approved","OW459"
"2023-04-28 15:00",2.51271373570377,"Approved","OW459"
"2023-04-28 16:00",2.51271215037935,"Approved","OW459"
"2023-04-28 17:00",2.51171056505492,"Approved","OW459"
"2023-04-28 18:00",2.5117089797305,"Approved","OW459"
"2023-04-28 19:00",2.51170739440607,"Approved","OW459"
"2023-04-28 20:00",2.51070580908164,"Approved","OW459"
"2023-04-28 21:00",2.51070422375722,"Approved","OW459"
"2023-04-28 22:00",2.50970263843279,"Approved","OW459"
"2023-04-28 23:00",2.51070105310837,"Approved","OW459"
"2023-04-29 00:00",2.54069946778394,"Approved","OW459"
"2023-04-29 01:00",2.52669788245952,"Approved","OW459"
"2023-04-29 02:00",2.51769629713509,"Approved","OW459"
"2023-04-29 03:00",2.51569471181067,"Approved","OW459"
"2023-04-29 04:00",2.51469312648624,"Approved","OW459"
"2023-04-29 05:00",2.51369154116182,"Approved","OW459"
"2023-04-29 06:00",2.51168995583739,"Approved","OW459"
"2023-04-29 07:00",2.51068837051297,"Approved","OW459"
"2023-04-29 08:00",2.51068678518854,"Approved","OW459"
"2023-04-29 09:00",2.50968519986411,"Approved","OW459"
"2023-04-29 10:00",2.50968361453969,"Approved","OW459"
"2023-04-29 11:00",2.50868202921526,"Approved","OW459"
"2023-04-29 12:00",2.50868044389084,"Approved","OW459"
"2023-04-29 13:00",2.50767885856641,"Approved","OW459"
"2023-04-29 14:00",2.50867727324199,"Approved","OW459"
"2023-04-29 15:00",2.53067568791756,"Approved","OW459"
"2023-04-29 16:00",2.53967410259314,"Approved","OW459"
"2023-04-29 17:00",2.52167251726871,"Approved","OW459"
"2023-04-29 18:00",2.51467093194429,"Approved","OW459"
"2023-04-29 19:00",2.53166934661986,"Approved","OW459"
"2023-04-29 20:00",2.54266776129544,"Approved","OW459"
"2023-04-29 21:00",2.51766617597101,"Approved","OW459"
"2023-04-29 22:00",2.51366459064659,"Approved","OW459"
"2023-04-29 23:00",2.51166300532216,"Approved","OW459"
"2023-04-30 00:00",2.50966141999774,"Approved","OW459"
"2023-04-30 01:00",2.50765983467331,"Approved","OW459"
"2023-04-30 02:00",2.50665824934888,"Approved","OW459"
"2023-04-30 03:00",2.50565666402446,"Approved","OW459"
"2023-04-30 04:00",2.50465507870003,"Approved","OW459"
"2023-04-30 05:00",2.50365349337561,"Approved","OW459"
"2023-04-30 06:00",2.50265190805118,"Approved","OW459"
"2023-04-30 07:00",2.50165032272676,"Approved","OW459"
"2023-04-30 08:00",2.50064873740233,"Approved","OW459"
"2023-04-30 09:00",2.49864715207791,"Approved","OW459"
"2023-04-30 10:00",2.49764556675348,"Approved","OW459"
"2023-04-30 11:00",2.49664398142906,"Approved","OW459"
"2023-04-30 12:00",2.49564239610463,"Approved","OW459"
"2023-04-30 13:00",2.49464081078021,"Approved","OW459"
"2023-04-30 14:00",2.49463922545578,"Approved","OW459"
"2023-04-30 15:00",2.49263764013136,"Approved","OW459"
"2023-04-30 16:00",2.51963605480693,"Approved","OW459"
"2023-04-30 17:00",2.4996344694825,"Approved","OW459"
"2023-04-30 18:00",2.49563288415808,"Approved","OW459"
"2023-04-30 19:00",2.49263129883365,"Approved","OW459"
"2023-04-30 20:00",2.49062971350923,"Approved","OW459"
"2023-04-30 21:00",2.4896281281848,"Approved","OW459"
"2023-04-30 22:00",2.48862654286038,"Approved","OW459"
"2023-04-30 23:00",2.48762495753595,"Approved","OW459"
"2023-05-01 00:00",2.48562337221153,"Approved","OW459"
"2023-05-01 01:00",2.5136217868871,"Approved","OW459"
"2023-05-01 02:00",2.49062020156268,"Approved","OW459"
"2023-05-01 03:00",2.48561861623825,"Approved","OW459"
"2023-05-01 04:00",2.48461703091383,"Approved","OW459"
"2023-05-01 05:00",2.4826154455894,"Approved","OW459"
"2023-05-01 06:00",2.48061386026498,"Approved","OW459"
"2023-05-01 07:00",2.47961227494055,"Approved","OW459"
"2023-05-01 08:00",2.47761068961613,"Approved","OW459"
"2023-05-01 09:00",2.4766091042917,"Approved","OW459"
"2023-05-01 10:00",2.47560751896727,"Approved","OW459"
"2023-05-01 11:00",2.47360593364285,"Approved","OW459"
"2023-05-01 12:00",2.47260434831842,"Approved","OW459"
"2023-05-01 13:00",2.471602762994,"Approved","OW459"
"2023-05-01 14:00",2.47060117766957,"Approved","OW459"
"2023-05-01 15:00",2.46859959234515,"Approved","OW459"
"2023-05-01 16:00",2.46759800702072,"Approved","OW459"
"2023-05-01 17:00",2.4665964216963,"Approved","OW459"
"2023-05-01 18:00",2.46559483637187,"Approved","OW459"
"2023-05-01 19:00",2.46459325104745,"Approved","OW459"
"2023-05-01 20:00",2.46259166572302,"Approved","OW459"
"2023-05-01 21:00",2.4625900803986,"Approved","OW459"
"2023-05-01 22:00",2.48358849507417,"Approved","OW459"
"2023-05-01 23:00",2.49158690974975,"Approved","OW459"
"2023-05-02 00:00",2.46558532442532,"Approved","OW459"
"2023-05-02 01:00",2.46158373910089,"Approved","OW459"
"2023-05-02 02:00",2.45858215377647,"Approved","OW459"
"2023-05-02 03:00",2.45758056845204,"Approved","OW459"
"2023-05-02 04:00",2.45557898312762,"Approved","OW459"
"2023-05-02 05:00",2.45357739780319,"Approved","OW459"
"2023-05-02 06:00",2.47457581247877,"Approved","OW459"
"2023-05-02 07:00",2.48157422715434,"Approved","OW459"
"2023-05-02 08:00",2.45657264182992,"Approved","OW459"
"2023-05-02 09:00",2.45257105650549,"Approved","OW459"
"2023-05-02 10:00",2.45056947118107,"Approved","OW459"
"2023-05-02 11:00",2.44856788585664,"Approved","OW459"
"2023-05-02 12:00",2.44756630053222,"Approved","OW459"
"2023-05-02 13:00",2.44556471520779,"Approved","OW459"
"2023-05-02 14:00",2.44356312988337,"Approved","OW459"
"2023-05-02 15:00",2.44256154455894,"Approved","OW459"
"2023-05-02 16:00",2.44155995923451,"Approved","OW459"
"2023-05-02 17:00",2.46155837391009,"Approved","OW459"
"2023-05-02 18:00",2.45055678858566,"Approved","OW459"
"2023-05-02 19:00",2.44255520326124,"Approved","OW459"
"2023-05-02 20:00",2.43955361793681,"Approved","OW459"
"2023-05-02 21:00",2.43855203261239,"Approved","OW459"
"2023-05-02 22:00",2.43755044728796,"Approved","OW459"
"2023-05-02 23:00",2.46054886196354,"Approved","OW459"
"2023-05-03 00:00",2.44554727663911,"Approved","OW459"
"2023-05-03 01:00",2.43854569131469,"Approved","OW459"
"2023-05-03 02:00",2.43554410599026,"Approved","OW459"
"2023-05-03 03:00",2.43454252066584,"Approved","OW459"
"2023-05-03 04:00",2.43454093534141,"Approved","OW459"
"2023-05-03 05:00",2.43353935001699,"Approved","OW459"
"2023-05-03 06:00",2.43153776469256,"Approved","OW459"
"2023-05-03 07:00",2.43053617936814,"Approved","OW459"
"2023-05-03 08:00",2.42953459404371,"Approved","OW459"
"2023-05-03 09:00",2.42853300871928,"Approved","OW459"
"2023-05-03 10:00",2.42653142339486,"Approved","OW459"
"2023-05-03 11:00",2.42552983807043,"Approved","OW459"
"2023-05-03 12:00",2.42452825274601,"Approved","OW459"
"2023-05-03 13:00",2.42452666742158,"Approved","OW459"
"2023-05-03 14:00",2.42352508209716,"Approved","OW459"
"2023-05-03 15:00",2.42252349677273,"Approved","OW459"
"2023-05-03 16:00",2.42152191144831,"Approved","OW459"
"2023-05-03 17:00",2.41952032612388,"Approved","OW459"
"2023-05-03 18:00",2.41951874079946,"Approved","OW459"
"2023-05-03 19:00",2.41851715547503,"Approved","OW459"
"2023-05-03 20:00",2.44451557015061,"Approved","OW459"
"2023-05-03 21:00",2.44951398482618,"Approved","OW459"
"2023-05-03 22:00",2.42151239950176,"Approved","OW459"
"2023-05-03 23:00",2.41851081417733,"Approved","OW459"
"2023-05-04 00:00",2.4155092288529,"Approved","OW459"
"2023-05-04 01:00",2.41550764352848,"Approved","OW459"
"2023-05-04 02:00",2.41350605820405,"Approved","OW459"
"2023-05-04 03:00",2.41250447287963,"Approved","OW459"
"2023-05-04 04:00",2.4115028875552,"Approved","OW459"
"2023-05-04 05:00",2.41050130223078,"Approved","OW459"
"2023-05-04 06:00",2.40849971690635,"Approved","OW459"
"2023-05-04 07:00",2.40749813158193,"Approved","OW459"
"2023-05-04 08:00",2.4064965462575,"Approved","OW459"
"2023-05-04 09:00",2.40549496093308,"Approved","OW459"
"2023-05-04 10:00",2.40349337560865,"Approved","OW459"
"2023-05-04 11:00",2.40249179028423,"Approved","OW459"
"2023-05-04 12:00",2.4014902049598,"Approved","OW459"
"2023-05-04 13:00",2.40048861963538,"Approved","OW459"
"2023-05-04 14:00",2.39848703431095,"Approved","OW459"
"2023-05-04 15:00",2.39748544898652,"Approved","OW459"
"2023-05-04 16:00",2.3964838636621,"Approved","OW459"
"2023-05-04 17:00",2.39648227833767,"Approved","OW459"
"2023-05-04 18:00",2.39548069301325,"Approved","OW459"
"2023-05-04 19:00",2.39247910768882,"Approved","OW459"
"2023-05-04 20:00",2.3924775223644,"Approved","OW459"
"2023-05-04 21:00",2.39047593703997,"Approved","OW459"
"2023-05-04 22:00",2.41647435171555,"Approved","OW459"
"2023-05-04 23:00",2.40447276639112,"Approved","OW459"
"2023-05-05 00:00",2.3924711810667,"Approved","OW459"
"2023-05-05 01:00",2.38946959574227,"Approved","OW459"
"2023-05-05 02:00",2.38846801041785,"Approved","OW459"
"2023-05-05 03:00",2.38646642509342,"Approved","OW459"
"2023-05-05 04:00",2.385464839769,"Approved","OW459"
"2023-05-05 05:00",2.38446325444457,"Approved","OW459"
"2023-05-05 06:00",2.38346166912014,"Approved","OW459"
"2023-05-05 07:00",2.38146008379572,"Approved","OW459"
"2023-05-05 08:00",2.38045849847129,"Approved","OW459"
"2023-05-05 09:00",2.37845691314687,"Approved","OW459"
"2023-05-05 10:00",2.37745532782244,"Approved","OW459"
"2023-05-05 11:00",2.37545374249802,"Approved","OW459"
"2023-05-05 12:00",2.37245215717359,"Approved","OW459"
"2023-05-05 13:00",2.36945057184917,"Approved","OW459"
"2023-05-05 14:00",2.39444898652474,"Approved","OW459"
"2023-05-05 15:00",2.37344740120032,"Approved","OW459"
"2023-05-05 16:00",2.36844581587589,"Approved","OW459"
"2023-05-05 17:00",2.36744423055147,"Approved","OW459"
"2023-05-05 18:00",2.36344264522704,"Approved","OW459"
"2023-05-05 19:00",2.36144105990262,"Approved","OW459"
"2023-05-05 20:00",2.35943947457819,"Approved","OW459"
"2023-05-05 21:00",2.35743788925377,"Approved","OW459"
"2023-05-05 22:00",2.35643630392934,"Approved","OW459"
"2023-05-05 23:00",2.35443471860491,"Approved","OW459"
"2023-05-06 00:00",2.37843313328049,"Approved","OW459"
"2023-05-06 01:00",2.36643154795606,"Approved","OW459"
"2023-05-06 02:00",2.35442996263164,"Approved","OW459"
"2023-05-06 03:00",2.35042837730721,"Approved","OW459"
"2023-05-06 04:00",2.34842679198279,"Approved","OW459"
"2023-05-06 05:00",2.34642520665836,"Approved","OW459"
"2023-05-06 06:00",2.34442362133394,"Approved","OW459"
"2023-05-06 07:00",2.34242203600951,"Approved","OW459"
"2023-05-06 08:00",2.34042045068509,"Approved","OW459"
"2023-05-06 09:00",2.33841886536066,"Approved","OW459"
"2023-05-06 10:00",2.33641728003624,"Approved","OW459"
"2023-05-06 11:00",2.33441569471181,"Approved","OW459"
"2023-05-06 12:00",2.33241410938739,"Approved","OW459"
"2023-05-06 13:00",2.33141252406296,"Approved","OW459"
"2023-05-06 14:00",2.32941093873853,"Approved","OW459"
"2023-05-06 15:00",2.32840935341411,"Approved","OW459"
"2023-05-06 16:00",2.32640776808968,"Approved","OW459"
"2023-05-06 17:00",2.32540618276526,"Approved","OW459"
"2023-05-06 18:00",2.32340459744083,"Approved","OW459"
"2023-05-06 19:00",2.32240301211641,"Approved","OW459"
"2023-05-06 20:00",2.32040142679198,"Approved","OW459"
"2023-05-06 21:00",2.31939984146756,"Approved","OW459"
"2023-05-06 22:00",2.33639825614313,"Approved","OW459"
"2023-05-06 23:00",2.34539667081871,"Approved","OW459"
"2023-05-07 00:00",2.32239508549428,"Approved","OW459"
"2023-05-07 01:00",2.31739350016986,"Approved","OW459"
"2023-05-07 02:00",2.31639191484543,"Approved","OW459"
"2023-05-07 03:00",2.31439032952101,"Approved","OW459"
"2023-05-07 04:00",2.31238874419658,"Approved","OW459"
"2023-05-07 05:00",2.31138715887215,"Approved","OW459"
"2023-05-07 06:00",2.30938557354773,"Approved","OW459"
"2023-05-07 07:00",2.3073839882233,"Approved","OW459"
"2023-05-07 08:00",2.30638240289888,"Approved","OW459"
"2023-05-07 09:00",2.30538081757445,"Approved","OW459"
"2023-05-07 10:00",2.30437923225003,"Approved","OW459"
"2023-05-07 11:00",2.3023776469256,"Approved","OW459"
"2023-05-07 12:00",2.30137606160118,"Approved","OW459"
"2023-05-07 13:00",2.30037447627675,"Approved","OW459"
"2023-05-07 14:00",2.29937289095233,"Approved","OW459"
"2023-05-07 15:00",2.2983713056279,"Approved","OW459"
"2023-05-07 16:00",2.29736972030348,"Approved","OW459"
"2023-05-07 17:00",2.29636813497905,"Approved","OW459"
"2023-05-07 18:00",2.29536654965463,"Approved","OW459"
"2023-05-07 19:00",2.2943649643302,"Approved","OW459"
"2023-05-07 20:00",2.29336337900578,"Approved","OW459"
"2023-05-07 21:00",2.29236179368135,"Approved","OW459"
"2023-05-07 22:00",2.29236020835692,"Approved","OW459"
"2023-05-07 23:00",2.2913586230325,"Approved","OW459"
"2023-05-08 00:00",2.28935703770807,"Approved","OW459"
"2023-05-08 01:00",2.28935545238365,"Approved","OW459"
"2023-05-08 02:00",2.28835386705922,"Approved","OW459"
"2023-05-08 03:00",2.2873522817348,"Approved","OW459"
"2023-05-08 04:00",2.28635069641037,"Approved","OW459"
"2023-05-08 05:00",2.28534911108595,"Approved","OW459"
"2023-05-08 06:00",2.28534752576152,"Approved","OW459"
"2023-05-08 07:00",2.2843459404371,"Approved","OW459"
"2023-05-08 08:00",2.28334435511267,"Approved","OW459"
"2023-05-08 09:00",2.28234276978825,"Approved","OW459"
"2023-05-08 10:00",2.28234118446382,"Approved","OW459"
"2023-05-08 11:00",2.2803395991394,"Approved","OW459"
"2023-05-08 12:00",2.28033801381497,"Approved","OW459"
"2023-05-08 13:00",2.27933642849054,"Approved","OW459"
"2023-05-08 14:00",2.27933484316612,"Approved","OW459"
"2023-05-08 15:00",2.27833325784169,"Approved","OW459"
"2023-05-08 16:00",2.27833167251727,"Approved","OW459"
"2023-05-08 17:00",2.27733008719284,"Approved","OW459"
"2023-05-08 18:00",2.27732850186842,"Approved","OW459"
"2023-05-08 19:00",2.27732691654399,"Approved","OW459"
"2023-05-08 20:00",2.27732533121957,"Approved","OW459"
"2023-05-08 21:00",2.27632374589514,"Approved","OW459"
"2023-05-08 22:00",2.27632216057072,"Approved","OW459"
"2023-05-08 23:00",2.27632057524629,"Approved","OW459"
"2023-05-09 00:00",2.27531898992187,"Approved","OW459"
"2023-05-09 01:00",2.27531740459744,"Approved","OW459"
"2023-05-09 02:00",2.27531581927302,"Approved","OW459"
"2023-05-09 03:00",2.27431423394859,"Approved","OW459"
"2023-05-09 04:00",2.27431264862416,"Approved","OW459"
"2023-05-09 05:00",2.27431106329974,"Approved","OW459"
"2023-05-09 06:00",2.27330947797531,"Approved","OW459"
"2023-05-09 07:00",2.27330789265089,"Approved","OW459"
"2023-05-09 08:00",2.27330630732646,"Approved","OW459"
"2023-05-09 09:00",2.27230472200204,"Approved","OW459"
"2023-05-09 10:00",2.27230313667761,"Approved","OW459"
"2023-05-09 11:00",2.27230155135319,"Approved","OW459"
"2023-05-09 12:00",2.27229996602876,"Approved","OW459"
"2023-05-09 13:00",2.30029838070434,"Approved","OW459"
"2023-05-09 14:00",2.28529679537991,"Approved","OW459"
"2023-05-09 15:00",2.27929521005549,"Approved","OW459"
"2023-05-09 16:00",2.27729362473106,"Approved","OW459"
"2023-05-09 17:00",2.27629203940664,"Approved","OW459"
"2023-05-09 18:00",2.27529045408221,"Approved","OW459"
"2023-05-09 19:00",2.27428886875779,"Approved","OW459"
"2023-05-09 20:00",2.27428728343336,"Approved","OW459"
"2023-05-09 21:00",2.27328569810893,"Approved","OW459"
"2023-05-09 22:00",2.27428411278451,"Approved","OW459"
"2023-05-09 23:00",2.27328252746008,"Approved","OW459"
"2023-05-10 00:00",2.27328094213566,"Approved","OW459"
"2023-05-10 01:00",2.27327935681123,"Approved","OW459"
"2023-05-10 02:00",2.27327777148681,"Approved","OW459"
"2023-05-10 03:00",2.27327618616238,"Approved","OW459"
"2023-05-10 04:00",2.27327460083796,"Approved","OW459"
"2023-05-10 05:00",2.27327301551353,"Approved","OW459"
"2023-05-10 06:00",2.27227143018911,"Approved","OW459"
"2023-05-10 07:00",2.27226984486468,"Approved","OW459"
"2023-05-10 08:00",2.27226825954026,"Approved","OW459"
"2023-05-10 09:00",2.27226667421583,"Approved","OW459"
"2023-05-10 10:00",2.27226508889141,"Approved","OW459"
"2023-05-10 11:00",2.27226350356698,"Approved","OW459"
"2023-05-10 12:00",2.27226191824255,"Approved","OW459"
"2023-05-10 13:00",2.27226033291813,"Approved","OW459"
"2023-05-10 14:00",2.2722587475937,"Approved","OW459"
"2023-05-10 15:00",2.27225716226928,"Approved","OW459"
"2023-05-10 16:00",2.27225557694485,"Approved","OW459"
"2023-05-10 17:00",2.29825399162043,"Approved","OW459"
"2023-05-10 18:00",2.298252406296,"Approved","OW459"
"2023-05-10 19:00",2.28125082097158,"Approved","OW459"
"2023-05-10 20:00",2.27924923564715,"Approved","OW459"
"2023-05-10 21:00",2.27724765032273,"Approved","OW459"
"2023-05-10 22:00",2.2782460649983,"Approved","OW459"
"2023-05-10 23:00",2.27824447967388,"Approved","OW459"
"2023-05-11 00:00",2.30524289434945,"Approved","OW459"
"2023-05-11 01:00",2.31124130902503,"Approved","OW459"
"2023-05-11 02:00",2.2862397237006,"Approved","OW459"
"2023-05-11 03:00",2.28423813837618,"Approved","OW459"
"2023-05-11 04:00",2.28223655305175,"Approved","OW459"
"2023-05-11 05:00",2.30723496772732,"Approved","OW459"
"2023-05-11 06:00",2.3142333824029,"Approved","OW459"
"2023-05-11 07:00",2.29223179707847,"Approved","OW459"
"2023-05-11 08:00",2.28823021175405,"Approved","OW459"
"2023-05-11 09:00",2.28622862642962,"Approved","OW459"
"2023-05-11 10:00",2.2852270411052,"Approved","OW459"
"2023-05-11 11:00",2.28522545578077,"Approved","OW459"
"2023-05-11 12:00",2.28422387045635,"Approved","OW459"
"2023-05-11 13:00",2.28422228513192,"Approved","OW459"
"2023-05-11 14:00",2.2842206998075,"Approved","OW459"
"2023-05-11 15:00",2.28421911448307,"Approved","OW459"
"2023-05-11 16:00",2.28521752915865,"Approved","OW459"
"2023-05-11 17:00",2.28521594383422,"Approved","OW459"
"2023-05-11 18:00",2.28621435850979,"Approved","OW459"
"2023-05-11 19:00",2.28621277318537,"Approved","OW459"
"2023-05-11 20:00",2.28521118786094,"Approved","OW459"
"2023-05-11 21:00",2.28520960253652,"Approved","OW459"
"2023-05-11 22:00",2.28520801721209,"Approved","OW459"
"2023-05-11 23:00",2.28620643188767,"Approved","OW459"
"2023-05-12 00:00",2.28620484656324,"Approved","OW459"
"2023-05-12 01:00",2.28620326123882,"Approved","OW459"
"2023-05-12 02:00",2.28720167591439,"Approved","OW459"
"2023-05-12 03:00",2.28620009058997,"Approved","OW459"
"2023-05-12 04:00",2.28619850526554,"Approved","OW459"
"2023-05-12 05:00",2.28719691994112,"Approved","OW459"
"2023-05-12 06:00",2.28719533461669,"Approved","OW459"
"2023-05-12 07:00",2.28719374929227,"Approved","OW459"
"2023-05-12 08:00",2.28719216396784,"Approved","OW459"
"2023-05-12 09:00",2.28719057864342,"Approved","OW459"
"2023-05-12 10:00",2.28718899331899,"Approved","OW459"
"2023-05-12 11:00",2.28818740799456,"Approved","OW459"
"2023-05-12 12:00",2.28818582267014,"Approved","OW459"
"2023-05-12 13:00",2.28818423734571,"Approved","OW459"
"2023-05-12 14:00",2.28818265202129,"Approved","OW459"
"2023-05-12 15:00",2.28918106669686,"Approved","OW459"
"2023-05-12 16:00",2.28817948137244,"Approved","OW459"
"2023-05-12 17:00",2.28817789604801,"Approved","OW459"
"2023-05-12 18:00",2.28917631072359,"Approved","OW459"
"2023-05-12 19:00",2.28217472539916,"Approved","OW459"